User: anonymous   Login
Location: Rometta
(44.2000°N, 10.0500°E)
Time: 03:49:39
(UTC+00:00)
Language:

Meteor 2-8 Rocket - Orbit

View from above orbital plane
View from above orbital plane
View from above satellite
View from above satellite

Ground track
Ground track

The orbit data is extracted from the following two-line orbital elements,

1 13114U 82025B   21101.92138212  .00000037  00000-0  19556-4 0  9990
2 13114  82.5420 172.9489 0014381 187.5254 344.5966 13.84681147973146
Epoch (UTC): 11 April 2021 22:06:47
Eccentricity: 0.0014381
inclination: 82.5420°
perigee height: 937 km
apogee height: 958 km
right ascension of ascending node: 172.9489°
argument of perigee: 187.5254°
revolutions per day: 13.84681147
mean anomaly at epoch: 344.5966°
orbit number at epoch: 97314

The dashed part of the orbit path shows where the satellite is in the earth's shadow,  

DLR